Regional Weather Roundup
Issued by NWS

Home | Current Version | Previous Version | Text Only | Print | Product List | Glossary Off
Versions: 1 2 3 4 5 6 7 8 9 10 11 12 13 14 15 16 17 18 19 20 21 22 23 24 25 26 27 28 29 30 31 32 33 34 35 36 37 38 39 40 41 42 43 44 45 46 47 48 49 50

000
ASUS45 KCYS 021010
RWRWY

WYOMING REGIONAL WEATHER ROUNDUP
NATIONAL WEATHER SERVICE CHEYENNE WY
400 AM MDT WED SEP 02 2015

NOTE:  "FAIR" INDICATES FEW OR NO CLOUDS BELOW 12,000 FEET
WITH NO SIGNIFICANT WEATHER AND/OR OBSTRUCTIONS TO VISIBILITY.

WYZ001-021100-
YELLOWSTONE NATIONAL PARK

CITY           SKY/WX    TMP DP  RH WIND       PRES   REMARKS
LK YELLOWSTONE   N/A     43  42  97 VRB3      30.15S
W YELLOWSTONE  NOT AVBL

$$
WYZ002>013-054>058-071-098>099-021100-
NORTHERN WYOMING

CITY           SKY/WX    TMP DP  RH WIND       PRES   REMARKS
JACKSON        FAIR      45  37  76 N6        30.07S
CODY           FAIR      64  32  29 S13       29.92S
GREYBULL       FAIR      64  39  39 CALM      29.85S
WORLAND        FAIR      68  38  33 S9        29.88S
SHERIDAN       FAIR      58  39  49 S5        29.85S
BUFFALO        FAIR      73  36  25 W15       29.93R
GILLETTE       FAIR      73  41  31 SW20      29.87S
HULETT         FAIR      75  39  27 MISG      29.89S
NEWCASTLE        N/A     63  37  39 SE10      29.94F

$$
WYZ014>020-022>026-101>103-021100-
CENTRAL WYOMING

CITY           SKY/WX    TMP DP  RH WIND       PRES   REMARKS
BIG PINEY      FAIR      47  33  58 E5        30.17S
PINEDALE       FAIR      50  37  62 E5        30.19S
DUBOIS         FAIR      46  32  57 CALM      30.12S
LANDER         FAIR      67  40  37 S9        30.00S
RIVERTON       FAIR      65  40  39 S8        30.01S
CASPER         FAIR      68  39  34 SW18      30.03R
DOUGLAS        FAIR      66  39  37 CALM      30.01R

$$
WYZ021-027>030-104>119-021100-
SOUTHERN WYOMING

CITY           SKY/WX    TMP DP  RH WIND       PRES   REMARKS
EVANSTON       MOCLDY    58  38  47 S10       30.18R
KEMMERER       FAIR      57  36  44 CALM      30.18S
FORT BRIDGER   SUNNY     66  36  32 SW20G25   30.19R
ROCK SPRINGS   MOCLDY    57  42  57 S3        30.17R
DIXON          FAIR      52  44  72 CALM      30.24S
RAWLINS        FAIR      62  39  42 SW18G25   30.18R
SARATOGA       FAIR      54  41  62 SE12G17   30.23S
LARAMIE        FAIR      52  40  63 S9        30.22S
CHEYENNE       FAIR      64  40  41 W10       30.11S
TORRINGTON     FAIR      57  45  64 NE7       29.97R
PINE BLUFFS    FAIR      55  39  54 CALM      30.07S

$$


USA.gov is the U.S. government's official web portal to all federal, state and local government web resources and services.